Location: Newark
(41.9364°N, 2.8061°E)
Time: 02:29:53
(UTC+00:00)

deb Explorer IX - All Passes

Search period start: 23 February 2020 00:00
Search period end: 04 March 2020 00:00
Orbit: 549 x 1099 km, 38.8° (Epoch: 21 February)

Date Brightness Start Highest point End Pass type
(mag) Time Alt. Az. Time Alt. Az. Time Alt. Az.
23 Feb - 08:39:46 10° S 08:42:20 15° SSE 08:44:46 10° ESE daylight
23 Feb - 10:24:28 10° SW 10:28:35 39° SSE 10:32:26 10° E daylight
23 Feb - 12:10:58 10° W 12:15:04 56° S 12:19:07 10° ESE daylight
23 Feb - 13:57:46 10° W 14:01:29 34° SSW 14:05:23 10° SE daylight
23 Feb - 15:46:24 10° SW 15:47:39 11° SSW 15:48:56 10° SSW daylight
24 Feb - 08:17:12 10° S 08:20:02 16° SSE 08:22:41 10° ESE daylight
24 Feb - 10:02:06 10° SW 10:06:19 40° SSE 10:10:14 10° E daylight
24 Feb - 11:48:40 10° W 11:52:48 56° S 11:56:51 10° ESE daylight
24 Feb - 13:35:32 10° W 13:39:14 33° SSW 13:43:02 10° SE daylight
24 Feb - 15:24:37 10° SW 15:25:21 10° SSW 15:26:06 10° SSW daylight
25 Feb - 07:54:38 10° S 07:57:43 17° SSE 08:00:36 10° ESE daylight
25 Feb - 09:39:41 10° SW 09:44:03 41° SSE 09:48:02 10° E daylight
25 Feb - 11:26:21 10° W 11:30:34 56° S 11:34:35 10° ESE daylight
25 Feb - 13:13:17 10° W 13:16:59 32° SSW 13:20:43 10° SE daylight
26 Feb - 07:32:02 10° SSW 07:35:24 18° SSE 07:38:30 10° ESE daylight
26 Feb - 09:17:16 10° WSW 09:21:47 42° SSE 09:25:50 10° E daylight
26 Feb - 11:04:00 10° W 11:08:19 56° S 11:12:21 10° ESE daylight
26 Feb - 12:51:00 10° W 12:54:44 32° SSW 12:58:25 10° SE daylight
27 Feb - 07:09:27 10° SSW 07:13:04 19° SSE 07:16:24 10° ESE daylight
27 Feb - 08:54:49 10° WSW 08:59:30 44° SSE 09:03:39 10° E daylight
27 Feb - 10:41:38 10° W 10:46:04 57° S 10:50:08 10° ESE daylight
27 Feb - 12:28:43 10° W 12:32:28 31° SSW 12:36:08 10° SE daylight
28 Feb - 06:46:50 10° SSW 06:50:44 20° SSE 06:54:17 10° ESE daylight
28 Feb - 08:32:21 10° WSW 08:37:12 45° SSE 08:41:28 10° E daylight
28 Feb - 10:19:15 10° W 10:23:48 57° S 10:27:56 10° ESE daylight
28 Feb - 12:06:24 10° W 12:10:12 31° SSW 12:13:51 10° SE daylight
29 Feb - 06:24:13 10° SSW 06:28:24 21° SSE 06:32:09 10° ESE daylight
29 Feb - 08:09:51 10° WSW 08:14:54 47° SSE 08:19:17 10° E daylight
29 Feb - 09:56:50 10° W 10:01:32 58° S 10:05:43 10° ESE daylight
29 Feb - 11:44:04 10° W 11:47:56 31° SSW 11:51:36 10° SE daylight
01 Mar - 06:01:36 10° SSW 06:06:02 22° SSE 06:10:00 10° ESE daylight
01 Mar - 07:47:21 10° WSW 07:52:35 48° SSE 07:57:06 10° E daylight
01 Mar - 09:34:25 10° W 09:39:15 58° S 09:43:31 10° ESE daylight
01 Mar - 11:21:42 10° W 11:25:40 31° SSW 11:29:22 10° SE daylight
02 Mar - 05:38:58 10° SSW 05:43:40 23° SSE 05:47:51 10° E visible
02 Mar - 07:24:50 10° WSW 07:30:15 49° SSE 07:34:55 10° E daylight
02 Mar - 09:11:57 10° W 09:16:58 59° S 09:21:19 10° ESE daylight
02 Mar - 10:59:19 10° W 11:03:24 31° SSW 11:07:08 10° SE daylight
03 Mar - 05:16:20 10° SSW 05:21:17 25° SSE 05:25:40 10° E visible
03 Mar - 07:02:17 10° WSW 07:07:55 51° SSE 07:12:43 10° E daylight
03 Mar - 08:49:28 10° W 08:54:39 60° S 08:59:08 10° ESE daylight
03 Mar - 10:36:54 10° W 10:41:06 32° SSW 10:44:55 10° SE daylight
